OBJECT B, 51825

Orbit data source: Space-Track

You're viewing an Uncataloged Satellite

Recently launched and/or uncataloged satellites may have evolving metadata. Metadata may include but not limited to: Owner, Maufacturer, Bus, Motor, and Mission.

OBJECT B, 51825 is a satellite owned by Sanya RI (CN) in SSO that was launched on Sun, 27 Feb 2022 UTC via a CHANG ZHENG 8 launch vehicle from the Wenchang Satellite Launch Center (WSC). Unknown objects in Earth's orbit typically refer to objects detected orbiting the Earth but have not yet been identified or cataloged. These objects could be anything from previously untracked satellites, spent rocket stages, debris from satellite collisions, or even natural meteoroids temporarily captured by Earth's gravity.

Loading next visibility...
OBJECT B details
Identifier
51825, 2022-019B
Orbit
SSO
Last TLE update8 hours ago
Origin
Flag of CNSanya RI (CN / PRC)
ManufacturerDFH Shenzhen
MissionNon-operational Civil Imaging
Bus & MotorHAINAN-1, Unknown motor
Mass55 kg wet, 55 kg dry
Launch date (UTC)
2022-02-27 (3 years ago)
Launch vehicle
CHANG ZHENG 8
Launch site
Wenchang Satellite Launch Center (WSC)
Object typeUnknown
Shape & HBRBox + 2 Pan, 2 m
Radar Cross Section0.583 m², Medium (>0.1 m² and < 1m²)

Expand to show TLE details & history

TLE from 8 hours ago
0 OBJECT B
1 51825U 22019B   25014.93530753  .00019992  00000-0  64211-3 0  9999
2 51825  97.4054  90.8411 0011255 205.8580 154.2100 15.32264214159533
Epoch: 2025-01-14T22:26Z
Definitive object data (Epoch: 2025-01-14T22:26:50.57Z)
Latitude-0.00009°
Longitude-0.50446°
Altitude479.108 km
Speed7.622 km/s
True Right ascension06h 03m 21s
True Declination0° 00' 00"
Sunlit
Object was in full shadow at TLE epoch
Visualization TLE readout
Latitude-33.01919°
Longitude4.63464°
Altitude485.66 km
Speed7.619 km/s
Apparent Right ascension04h 25m 01s
Apparent Declination-82° 31' 19"
Sunlit
Object is in full shadow
Visualization observer readout
Local Sidereal Time06:47:41
Azimuth185.234° SSW
Elevation-33.718°
Doppler factor1
Orbital elements
Apogee altitude473.711 km
Perigee altitude458.305 km
Semi-major axis6,844.145 km
Eccentricity0.0011255
Inclination97.4054°
RAAN90.8411°
Arg. of periapsis205.858°
True anomaly154.26604°
Mean anomaly154.21°
Eccentric anomaly154.23803°
Mean motion3.83323 °/min
BSTAR0.00064211
Orbital period93.92 mins
Loading maneuver chart data...
Loading historical data...
Loading historical data...
Loading historical data...
Loading historical data...
Loading historical data...
Loading historical data...
Loading historical data...

OBJECT B Visibility forecast

Observer location: undefined°, undefined

Span
Click to sort rows by Start time (UTC) header in descending order
Start Az.
Max El. time (UTC)
Max El. Az.
Max El.
End time (UTC)
End Az.
6 mins2025-01-15 17:48:21.339Z10.885° NNE2025-01-15 17:51:21.339Z2.755° NNE42.527°2025-01-15 17:54:21.339Z194.746° SSW
4 mins2025-01-16 04:23:21.339Z106.502° ESE2025-01-16 04:24:21.339Z78.531° E25.137°2025-01-16 04:27:21.339Z13.693° NNE
|